Latest Weather Observations for Noonamah

IDD60801

Issued at 5:35 pm CST Friday 31 October 2014 (issued every 30 minutes, with the page automatically refreshed every 10 minutes)

About weather observations | Map of weather stations | Latest weather observations for NT | Other Formats
Station Details ID: 014314 Name: NOONAMAH AIRSTRIP Lat: -12.61 Lon: 131.05 Height: 17.5 m
Data from the previous 72 hours. | See also: Recent months for locations in Northern Territory
Date/Time
CST
Temp
°C
App
Temp
°C
Dew
Point
Rel
Hum
%
Delta-T
°C
Wind Press
QNH
hPa
Press
MSL
hPa
Rain
since 9 am
mm
Dir
 
Spd
km/h
Gust
km/h
Spd
kts
Gust
kts
31/05:30pm 33.7 32.7 15.7 34 11.3 NW 15 26 8 14 1006.4 1006.2 0.0
31/05:00pm 34.5 32.7 13.3 27 12.9 NW 15 28 8 15 1006.3 1006.1 0.0
31/04:30pm 35.5 33.8 12.5 25 13.9 NW 13 24 7 13 1006.3 1006.1 0.0
31/04:00pm 35.5 34.0 13.1 26 13.6 NW 13 20 7 11 1006.5 1006.3 0.0
31/03:30pm 34.8 33.5 14.7 30 12.5 WNW 15 26 8 14 1006.9 1006.7 0.0
31/03:00pm 35.2 34.9 16.5 33 11.9 WNW 13 20 7 11 1007.1 1006.9 0.0
31/02:30pm 34.7 34.0 17.4 35 11.2 W 17 28 9 15 1007.4 1007.2 0.0
31/02:00pm 34.4 35.1 18.8 39 10.2 W 13 24 7 13 1007.6 1007.4 0.0
31/01:30pm 34.4 35.1 19.6 41 9.8 W 15 26 8 14 1007.9 1007.7 0.0
31/01:00pm 34.0 33.8 18.5 40 10.1 W 17 28 9 15 1008.4 1008.2 0.0
31/12:30pm 34.5 36.0 18.1 37 10.7 W 7 20 4 11 1009.0 1008.8 0.0
31/12:00pm 34.2 34.0 15.6 32 11.7 NE 11 17 6 9 1009.6 1009.4 0.0
31/11:30am 33.7 34.3 15.2 33 11.5 SSE 6 11 3 6 1010.0 1009.8 0.0
31/11:00am 32.4 32.3 15.0 35 10.7 NNE 9 15 5 8 1010.5 1010.3 0.0
31/10:30am 32.4 33.0 15.8 36 10.4 NE 7 15 4 8 1010.7 1010.5 0.0
31/10:00am 31.5 32.9 17.4 43 9.0 ENE 6 13 3 7 1010.8 1010.6 0.0
31/09:30am 30.3 32.1 18.7 50 7.5 NE 7 11 4 6 1011.0 1010.8 0.0
31/09:00am 29.4 31.6 19.1 54 6.7 NNE 6 11 3 6 1011.0 1010.8 0.0
31/08:30am 28.8 31.1 19.4 56 6.1 N 6 9 3 5 1010.9 1010.7 0.0
31/08:00am 27.7 29.9 19.2 60 5.5 N 6 7 3 4 1010.7 1010.5 0.0
31/07:30am 25.0 28.5 21.1 79 2.6 NNE 4 6 2 3 1010.5 1010.3 0.0
31/07:00am 24.0 28.6 21.7 87 1.5 CALM 0 0 0 0 1009.9 1009.7 0.0
31/06:30am 23.1 27.5 21.4 90 1.1 CALM 0 0 0 0 1009.4 1009.2 0.0
31/06:00am 23.1 27.5 21.4 90 1.1 CALM 0 0 0 0 1009.2 1009.0 0.0
31/05:30am 23.4 28.0 21.7 90 1.1 CALM 0 0 0 0 1009.0 1008.8 0.0
31/05:00am 23.3 27.4 20.8 86 1.6 CALM 0 0 0 0 1008.6 1008.4 0.0
31/04:30am 23.7 28.1 21.4 87 1.5 CALM 0 0 0 0 1008.5 1008.3 0.0
31/04:00am 24.1 28.6 21.6 86 1.7 CALM 0 0 0 0 1008.0 1007.8 0.0
31/03:30am 24.4 29.1 21.9 86 1.7 CALM 0 0 0 0 1008.0 1007.8 0.0
31/03:00am 24.6 29.2 21.7 84 1.9 CALM 0 0 0 0 1008.0 1007.8 0.0
31/02:30am 25.0 29.9 22.3 85 1.8 CALM 0 0 0 0 1008.2 1008.0 0.0
31/02:00am 25.4 30.3 22.3 83 2.1 CALM 0 0 0 0 1008.4 1008.2 0.0
31/01:30am 25.4 29.4 22.1 82 2.2 NNE 4 4 2 2 1008.5 1008.3 0.0
31/01:00am 26.7 31.7 23.2 81 2.4 WSW 2 4 1 2 1008.6 1008.4 0.0
31/12:30am 26.8 31.4 23.1 80 2.5 W 4 7 2 4 1008.8 1008.6 0.0
31/12:00am 27.1 31.6 22.9 78 2.9 WSW 4 6 2 3 1009.0 1008.8 0.0
 
Date/Time
CST
Temp
°C
App
Temp
°C
Dew
Point
Rel
Hum
%
Delta-T
°C
Wind Press
QNH
hPa
Press
MSL
hPa
Rain
since 9 am
mm
Dir
 
Spd
km/h
Gust
km/h
Spd
kts
Gust
kts
30/11:30pm 27.3 31.8 22.9 77 3.0 WSW 4 6 2 3 1009.3 1009.1 0.0
30/11:00pm 27.5 31.5 22.7 75 3.3 WSW 6 9 3 5 1009.4 1009.2 0.0
30/10:30pm 27.9 31.4 22.2 71 3.8 W 7 9 4 5 1009.2 1009.0 0.0
30/10:00pm 28.2 31.9 22.2 70 4.0 WNW 6 7 3 4 1009.0 1008.8 0.0
30/09:30pm 28.3 31.8 22.1 69 4.2 NW 7 13 4 7 1008.6 1008.4 0.0
30/09:00pm 28.5 31.5 22.0 68 4.4 NW 9 13 5 7 1008.4 1008.2 0.0
30/08:30pm 28.9 31.8 22.4 68 4.4 NW 11 19 6 10 1008.1 1007.9 0.0
30/08:00pm 30.5 31.1 15.8 41 9.1 NNW 7 11 4 6 1007.7 1007.5 0.0
30/07:30pm 31.0 31.1 15.4 38 9.7 N 9 17 5 9 1007.5 1007.3 0.0
30/07:00pm 31.8 31.4 15.3 37 10.2 N 11 19 6 10 1007.2 1007.0 0.0
30/06:30pm 32.5 32.5 15.1 35 10.8 NNE 9 17 5 9 1007.0 1006.8 0.0
30/06:00pm 33.4 32.5 14.9 32 11.5 NNE 13 20 7 11 1006.7 1006.5 0.0
30/05:30pm 34.0 33.0 14.5 31 12.0 NNE 13 22 7 12 1006.6 1006.4 0.0
30/05:00pm 34.6 32.6 14.0 29 12.6 NNE 17 26 9 14 1006.7 1006.5 0.0
30/04:30pm 35.4 34.0 13.5 26 13.4 NNE 13 22 7 12 1006.5 1006.3 0.0
30/04:00pm 36.0 33.9 13.5 26 13.8 NNE 17 26 9 14 1006.6 1006.4 0.0
30/03:30pm 36.2 33.0 11.8 23 14.6 NE 20 28 11 15 1006.9 1006.7 0.0
30/03:00pm 36.5 35.0 12.0 23 14.7 N 11 22 6 12 1007.0 1006.8 0.0
30/02:30pm 36.4 37.3 17.5 32 12.3 NE 9 24 5 13 1007.3 1007.1 0.0
30/02:00pm 34.8 36.6 21.1 44 9.3 NW 13 24 7 13 1007.6 1007.4 0.0
30/01:30pm 34.7 36.8 21.7 46 8.9 NW 13 24 7 13 1008.1 1007.9 0.0
30/01:00pm 34.4 36.3 22.1 48 8.4 W 15 32 8 17 1008.5 1008.3 0.0
30/12:30pm 35.4 36.9 18.0 35 11.3 SSE 7 17 4 9 1009.0 1008.8 0.0
30/12:00pm 34.5 35.3 18.1 37 10.7 NE 11 19 6 10 1009.6 1009.4 0.0
30/11:30am 34.0 36.2 19.3 42 9.7 NNW 6 15 3 8 1009.9 1009.7 0.0
30/11:00am 33.3 35.4 19.4 44 9.2 E 7 19 4 10 1010.3 1010.1 0.0
30/10:30am 31.8 34.8 20.1 50 7.8 N 4 7 2 4 1010.7 1010.5 0.0
30/10:00am 31.1 33.4 19.8 51 7.4 NNE 7 13 4 7 1011.0 1010.8 0.0
30/09:30am 30.0 33.4 21.7 61 5.6 ESE 6 9 3 5 1011.2 1011.0 0.0
30/09:00am 29.0 32.8 22.7 69 4.3 NNE 7 11 4 6 1011.2 1011.0 0.0
30/08:30am 28.6 32.6 23.1 72 3.8 NNE 7 11 4 6 1011.3 1011.1 0.0
30/08:00am 26.9 30.6 22.3 76 3.1 NNE 6 9 3 5 1011.0 1010.8 0.0
30/07:30am 25.3 29.4 21.6 80 2.5 NE 2 4 1 2 1010.8 1010.6 0.0
30/07:00am 23.9 28.3 21.4 86 1.6 CALM 0 0 0 0 1010.5 1010.3 0.0
30/06:30am 22.8 26.5 20.7 88 1.4 ESE 2 4 1 2 1010.1 1009.9 0.0
30/06:00am 22.6 25.7 20.3 87 1.5 SE 4 4 2 2 1009.9 1009.7 0.0
30/05:30am 22.9 26.3 20.2 85 1.7 ESE 2 6 1 3 1009.4 1009.2 0.0
30/05:00am 23.2 26.6 20.2 83 1.9 SE 2 4 1 2 1009.1 1008.9 0.0
30/04:30am 23.4 27.0 19.8 80 2.3 CALM 0 0 0 0 1008.9 1008.7 0.0
30/04:00am 23.9 27.7 20.2 80 2.4 CALM 0 0 0 0 1008.8 1008.6 0.0
30/03:30am 24.3 28.2 20.4 79 2.5 CALM 0 0 0 0 1008.9 1008.7 0.0
30/03:00am 24.4 28.3 20.3 78 2.7 CALM 0 0 0 0 1009.1 1008.9 0.0
30/02:30am 24.5 28.1 19.8 75 3.0 CALM 0 0 0 0 1009.6 1009.4 0.0
30/02:00am 25.3 29.2 20.3 74 3.3 CALM 0 0 0 0 1009.8 1009.6 0.0
30/01:30am 25.1 27.9 19.7 72 3.5 E 4 4 2 2 1010.4 1010.2 0.0
30/01:00am 24.6 27.2 19.2 72 3.5 NE 4 7 2 4 1010.3 1010.1 0.0
30/12:30am 26.1 29.6 19.5 67 4.3 CALM 0 0 0 0 1010.5 1010.3 0.0
30/12:00am 26.3 29.5 19.7 67 4.3 SE 2 4 1 2 1010.8 1010.6 0.0
 
Date/Time
CST
Temp
°C
App
Temp
°C
Dew
Point
Rel
Hum
%
Delta-T
°C
Wind Press
QNH
hPa
Press
MSL
hPa
Rain
since 9 am
mm
Dir
 
Spd
km/h
Gust
km/h
Spd
kts
Gust
kts
29/11:30pm 26.0 29.1 19.6 68 4.1 ENE 2 4 1 2 1011.1 1010.9 0.0
29/11:00pm 26.4 29.8 19.3 65 4.6 CALM 0 0 0 0 1010.9 1010.7 0.0
29/10:30pm 26.7 29.5 19.6 65 4.6 N 4 4 2 2 1011.0 1010.8 0.0
29/10:00pm 26.8 30.2 19.4 64 4.8 CALM 0 0 0 0 1010.7 1010.5 0.0
29/09:30pm 27.3 31.1 20.1 64 4.7 CALM 0 0 0 0 1010.3 1010.1 0.0
29/09:00pm 28.3 32.6 21.1 65 4.8 CALM 0 2 0 1 1010.0 1009.8 0.0
29/08:30pm 28.8 31.8 20.0 59 5.8 WSW 4 7 2 4 1009.6 1009.4 0.0
29/08:00pm 29.5 31.3 18.3 51 7.2 WNW 6 11 3 6 1009.5 1009.3 0.0
29/07:30pm 29.9 31.0 18.0 48 7.6 W 9 15 5 8 1009.1 1008.9 0.0
29/07:00pm 30.1 30.9 18.2 49 7.6 WNW 11 19 6 10 1008.8 1008.6 0.0
29/06:30pm 30.3 30.3 18.1 48 7.8 WNW 15 22 8 12 1008.5 1008.3 0.0
29/06:00pm 31.8 32.2 19.1 47 8.3 WNW 15 24 8 13 1008.1 1007.9 0.0
29/05:30pm 33.0 34.2 19.8 45 8.8 NW 13 22 7 12 1007.7 1007.5 0.0
29/05:00pm 33.7 35.2 20.5 46 8.8 NNW 13 20 7 11 1007.5 1007.3 0.0
29/04:30pm 34.4 35.5 20.4 44 9.4 NNW 15 24 8 13 1007.2 1007.0 0.0
29/04:00pm 34.7 35.3 20.3 43 9.6 N 17 28 9 15 1007.4 1007.2 0.0
29/03:30pm 36.2 37.3 20.4 39 10.6 NW 15 24 8 13 1007.6 1007.4 0.0
29/03:00pm 35.5 36.8 20.2 40 10.3 NNW 13 20 7 11 1007.9 1007.7 0.0
29/02:30pm 35.1 36.1 21.0 43 9.5 NNW 17 22 9 12 1008.1 1007.9 0.0
29/02:00pm 35.7 37.1 20.4 40 10.3 N 13 22 7 12 1008.4 1008.2 0.0
29/01:30pm 37.7 36.2 14.3 25 14.6 NE 15 26 8 14 1008.9 1008.7 0.0
29/01:00pm 36.9 36.2 15.4 28 13.6 ESE 13 22 7 12 1009.6 1009.4 0.0
29/12:30pm 36.0 36.0 15.2 29 13.1 E 9 15 5 8 1010.2 1010.0 0.0
29/12:00pm 35.3 35.4 16.6 33 11.9 E 11 22 6 12 1011.0 1010.8 0.0
29/11:30am 34.3 35.4 17.1 36 11.0 E 7 15 4 8 1011.4 1011.2 0.0
29/11:00am 32.8 33.8 18.6 43 9.2 ESE 11 19 6 10 1012.0 1011.8 0.0
29/10:30am 31.7 32.9 19.0 47 8.3 E 11 19 6 10 1012.4 1012.2 0.0
29/10:00am 30.2 32.2 19.9 54 6.8 NE 9 13 5 7 1012.7 1012.5 0.0
29/09:30am 30.6 33.0 20.8 56 6.5 E 9 19 5 10 1013.1 1012.9 0.0
29/09:00am 30.0 32.8 20.5 56 6.3 ESE 6 13 3 7 1012.7 1012.5 0.0
29/08:30am 28.6 32.4 21.6 66 4.7 ESE 4 7 2 4 1012.5 1012.3 0.0
29/08:00am 27.6 31.7 23.0 76 3.1 E 6 7 3 4 1012.5 1012.3 0.0
29/07:30am 25.6 29.3 22.3 82 2.2 E 6 7 3 4 1012.3 1012.1 0.0
29/07:00am 24.1 28.0 21.8 87 1.5 ESE 4 7 2 4 1011.8 1011.6 0.0
29/06:30am 23.6 28.1 21.5 88 1.4 CALM 0 0 0 0 1011.5 1011.3 0.0
29/06:00am 23.4 27.2 21.7 90 1.1 ENE 4 6 2 3 1011.1 1010.9 0.0
29/05:30am 23.7 27.5 21.6 88 1.4 NE 4 6 2 3 1010.7 1010.5 0.0
29/05:00am 23.8 27.5 21.5 87 1.5 NNE 4 6 2 3 1010.6 1010.4 0.0
29/04:30am 23.9 27.7 21.6 87 1.5 NE 4 6 2 3 1010.3 1010.1 0.0
29/04:00am 23.8 27.2 20.9 84 1.9 NE 4 6 2 3 1010.2 1010.0 0.0
29/03:30am 23.8 27.3 20.3 81 2.3 NNE 2 4 1 2 1009.9 1009.7 0.0
29/03:00am 23.8 27.4 19.7 78 2.6 CALM 0 0 0 0 1010.1 1009.9 0.0
29/02:30am 24.6 28.5 20.3 77 2.8 CALM 0 0 0 0 1010.1 1009.9 0.0
29/02:00am 24.7 28.5 20.2 76 2.9 CALM 0 0 0 0 1010.5 1010.3 0.0
29/01:30am 25.1 28.5 20.1 74 3.3 ESE 2 2 1 1 1010.8 1010.6 0.0
29/01:00am 25.0 28.6 19.8 73 3.4 CALM 0 2 0 1 1010.9 1010.7 0.0
29/12:30am 25.3 29.1 20.1 73 3.4 CALM 0 0 0 0 1011.0 1010.8 0.0
29/12:00am 25.4 28.7 20.0 72 3.5 E 2 4 1 2 1011.1 1010.9 0.0
 
Date/Time
CST
Temp
°C
App
Temp
°C
Dew
Point
Rel
Hum
%
Delta-T
°C
Wind Press
QNH
hPa
Press
MSL
hPa
Rain
since 9 am
mm
Dir
 
Spd
km/h
Gust
km/h
Spd
kts
Gust
kts
28/11:30pm 26.1 29.8 20.0 69 4.0 CALM 0 0 0 0 1011.0 1010.8 0.0
28/11:00pm 26.2 30.0 20.1 69 4.0 CALM 0 0 0 0 1010.9 1010.7 0.0
28/10:30pm 26.4 30.1 20.0 68 4.2 CALM 0 2 0 1 1010.6 1010.4 0.0
28/10:00pm 27.3 30.7 20.1 64 4.7 WSW 2 6 1 3 1010.3 1010.1 0.0
28/09:30pm 27.7 31.3 19.8 62 5.2 CALM 0 0 0 0 1009.9 1009.7 0.0
28/09:00pm 28.4 31.7 19.9 60 5.6 WNW 2 4 1 2 1009.6 1009.4 0.0
28/08:30pm 28.8 31.2 19.7 58 5.9 WNW 6 11 3 6 1009.4 1009.2 0.0
28/08:00pm 29.0 31.2 19.6 57 6.1 NW 7 11 4 6 1009.0 1008.8 0.0
28/07:30pm 29.3 31.8 21.0 61 5.5 WNW 9 15 5 8 1008.4 1008.2 0.0
28/07:00pm 30.1 32.3 20.4 56 6.4 NW 9 15 5 8 1007.9 1007.7 0.0
28/06:30pm 30.7 32.5 20.3 53 6.9 NW 11 17 6 9 1007.7 1007.5 0.0
28/06:00pm 31.5 33.1 20.8 53 7.2 NW 13 20 7 11 1007.4 1007.2 0.0

Other Formats:

Comma delimited format used in spreadsheet applications
http://www.bom.gov.au/fwo/IDD60801/IDD60801.94105.axf

JavaScript Object Notation format (JSON) in row-major order
http://www.bom.gov.au/fwo/IDD60801/IDD60801.94105.json